Back to catalog

STARLINK-31201

AliveCommunicationsVLEO
NORAD 58870·PAYLOAD·🇺🇸 United States

Launched Jan 29, 2024 from Cape Canaveral Space Force Station

Loading…

Next Passes (next 24 hours)

TLE

FreshSource: CelesTrak SupGP

Epoch: Sep 14, 2026, 14:54 UTC

1 58870C 24019T   26257.62131944 -.00015672  00000+0 -56777-3 0  2570
2 58870  42.9995 261.5367 0001488 274.0280  17.4280 15.27578835    16

Track STARLINK-31201 in real time with AllMySat

Download on the App Store